Location: Larrial
(48.2758°N, 4.5331°W)
Time: 23:13:49
(UTC+00:00)

Landsat 7 - Pass Details

Date: 09 April 2020
Orbit: 701 x 703 km, 98.1° (Epoch: 24 May)

Event Time Altitude Azimuth Distance (km) Brightness Sun altitude
Exits shadow 21:25:09 55° 156° (SSE) 850 3.8 -21.9°
Maximum altitude 21:26:13 84° 74° (ENE) 714 3.7 -22.1°
Drops below altitude 10° 21:31:00 10° 347° (NNW) 2,182 7.1 -22.6°
Sets 21:33:16 0° 347° (NNW) 3,105 8.1 -22.9°
